NOAA NWS Hourly Roundups by Site

Regional Weather Roundup for Omaha, NE

To Select Another Site Choose from List

Select Site:  

366
ASUS43 KOAX 201513
RWRNE

WEATHER ROUNDUP FOR NEBRASKA
NATIONAL WEATHER SERVICE OMAHA NE
1000 AM CDT SAT JUL 20 2024

NOTES: SATELLITE DATA IS BEING USED TO AUGMENT CLOUD COVER ABOVE
       12000 FEET.
       "FAIR" INDICATES FEW OR NO CLOUDS BELOW 12,000 FEET WITH NO
       SIGNIFICANT WEATHER AND/OR OBSTRUCTIONS TO VISIBILITY.


NEZ001>004-019>022-054>056-201600-
NEBRASKA PANHANDLE

CITY           SKY/WX    TMP DP  RH WIND       PRES   REMARKS
SCOTTSBLUFF    SUNNY     75  58  55 VRB5      30.25R
ALLIANCE       SUNNY     74  60  61 VRB6      30.23S
CHADRON        MOSUNNY   73  61  65 NE5       30.22R
GORDON         SUNNY     73  60  64 N5        30.23R
KIMBALL        PTSUNNY   67  61  80 NW5       30.30S
SIDNEY         CLOUDY    68  63  84 NW5       30.25R
$$

NEZ057>060-069>072-079>082-201600-
SOUTHWEST NEBRASKA

CITY           SKY/WX    TMP DP  RH WIND       PRES   REMARKS
NORTH PLATTE   MOSUNNY   71  64  78 N7        30.17R
GRANT          PTSUNNY   70  66  88 N3        30.20R
IMPERIAL       CLOUDY    71  64  78 N6        30.19S
LEXINGTON      PTSUNNY   70  65  84 N7        30.15R
MCCOOK         MOSUNNY   73  66  78 N9        30.15R
OGALLALA       SUNNY     72  63  72 N3        30.20S
$$

NEZ005>010-023>029-035>040-094-201600-
NORTH CENTRAL NEBRASKA

CITY           SKY/WX    TMP DP  RH WIND       PRES   REMARKS
VALENTINE      SUNNY     73  64  73 N9        30.18R
AINSWORTH      MOSUNNY   70  64  82 NE7       30.17S HAZE
BROKEN BOW     CLOUDY    69  67  93 MISG      30.15R
O`NEILL        CLOUDY    67  66  98 N7        30.14S
ORD            CLOUDY    64  64 100 NE3       30.13R FOG
$$

NEZ041-046>049-061>064-073>077-083>087-201600-
SOUTH CENTRAL NEBRASKA

CITY           SKY/WX    TMP DP  RH WIND       PRES   REMARKS
GRAND ISLAND   CLOUDY    66  65  96 E5        30.14R FOG
AURORA         CLOUDY    65  63  94 CALM      30.13S
HASTINGS       CLOUDY    66  63  90 CALM      30.14R
HEBRON         CLOUDY    67  63  88 SE6       30.12R
HOLDREGE       CLOUDY    66  63  90 NE7       30.13S
KEARNEY        CLOUDY    66  64  93 N8        30.14R
YORK           CLOUDY    64  63  94 CALM      30.13R
$$

NEZ011>018-030>034-042>045-201600-
NORTHEAST NEBRASKA

CITY           SKY/WX    TMP DP  RH WIND       PRES   REMARKS
NORFOLK        CLOUDY    70  65  84 SW3       30.11S
ALBION         CLOUDY    67  66  96 CALM      30.12S
BLAIR          CLOUDY    66  64  93 E5        30.13R
COLUMBUS       CLOUDY    68  64  88 SW6       30.13R
FREMONT        CLOUDY    68  62  82 E3        30.13R
TEKAMAH        CLOUDY    68  65  90 S9        30.12
WAYNE          CLOUDY    70  65  86 S5        30.12S
$$

NEZ050>053-065>068-078-088>093-201600-
SOUTHEAST NEBRASKA

CITY           SKY/WX    TMP DP  RH WIND       PRES   REMARKS
LINCOLN        CLOUDY    70  63  78 S5        30.12R
OMAHA EPPLEY   CLOUDY    66  63  90 SE7       30.13R
BEATRICE         N/A    N/A N/A N/A MISG        N/A
FALLS CITY     CLOUDY    68  64  87 SE6       30.11R
NEBRASKA CITY  CLOUDY    69  65  86 SE5       30.13R
PLATTSMOUTH    CLOUDY    66  64  94 E8        30.13R
$$

NEZ044-045-051>053-067-201600-
OMAHA AREA

CITY           SKY/WX    TMP DP  RH WIND       PRES   REMARKS
OMAHA EPPLEY   CLOUDY    66  63  90 SE7       30.13R
BLAIR          CLOUDY    66  64  93 E5        30.13R
FREMONT        CLOUDY    68  62  82 E3        30.13R
MILLARD        CLOUDY    67  64  89 E5        30.13R
OFFUTT AFB     PTSUNNY   67  63  89 E7        30.12R
PLATTSMOUTH    CLOUDY    66  64  94 E8        30.13R
WAHOO          CLOUDY    68  64  87 SE3       30.12S
$$



 

View Past Reports for Omaha, NE.

Products Courtesy of NOAA-NWS
NWS Information Parsing Script by Ken True at Saratoga Weather - Script by SE Lincoln Weather.